Station Historical Data
Daily Summary for August 19, 2017 Units:  English    Metric   Both
« Previous Day
Next Day »
Daily Weekly Monthly Yearly Custom
  High: Low: Average:
Temperature: 89.3 °F 67.4 °F 77.8 °F
Dew Point: 68.8 °F 59.5 °F 65.9 °F
Humidity: 90% 39% 69%
Wind Speed: 1.0mph 0.0mph 0mph
Wind Gust: 5.0mph - -
Wind- - SW
Pressure: 30.03 in 29.95 in -
Precipitation: 0.00 in    
Historical Graphs
 
 
Tabular Data for August 19, 2017
Time Temperature Dew Point Pressure Wind Wind Speed Wind Gust Humidity Rainfall Rate (Hourly) Conditions
00:00 72.9 °F 66.7 °F 29.97 in Calm     81% 0.00 in CLR
00:05 72.8 °F 66.6 °F 29.97 in Calm     81% 0.00 in CLR
00:10 72.7 °F 66.9 °F 29.97 in Calm     82% 0.00 in CLR
00:15 72.6 °F 66.8 °F 29.97 in Calm     82% 0.00 in CLR
00:20 72.6 °F 66.8 °F 29.97 in Calm     82% 0.00 in CLR
00:25 72.5 °F 67.0 °F 29.97 in Calm     83% 0.00 in CLR
00:30 72.4 °F 66.9 °F 29.97 in Calm     83% 0.00 in CLR
00:40 72.2 °F 66.7 °F 29.97 in Calm     83% 0.00 in CLR
00:45 72.1 °F 66.6 °F 29.97 in Calm     83% 0.00 in CLR
00:55 71.9 °F 66.4 °F 29.97 in Calm     83% 0.00 in CLR
01:00 71.8 °F 66.4 °F 29.97 in Calm     83% 0.00 in CLR
01:05 71.7 °F 66.3 °F 29.97 in Calm     83% 0.00 in CLR
01:10 71.6 °F 66.2 °F 29.97 in Calm     83% 0.00 in CLR
01:20 71.4 °F 66.3 °F 29.98 in Calm     84% 0.00 in CLR
01:25 71.4 °F 66.3 °F 29.98 in Calm     84% 0.00 in CLR
01:35 71.3 °F 66.2 °F 29.98 in Calm     84% 0.00 in CLR
01:40 71.3 °F 66.2 °F 29.98 in Calm     84% 0.00 in CLR
01:45 71.2 °F 66.1 °F 29.98 in Calm     84% 0.00 in CLR
01:50 71.1 °F 66.0 °F 29.98 in Calm     84% 0.00 in CLR
01:55 71.1 °F 66.0 °F 29.98 in Calm     84% 0.00 in CLR
02:00 71.0 °F 65.9 °F 29.98 in Calm     84% 0.00 in CLR
02:10 70.9 °F 65.8 °F 29.98 in Calm     84% 0.00 in CLR
02:15 70.9 °F 65.8 °F 29.98 in Calm     84% 0.00 in CLR
02:20 70.9 °F 65.8 °F 29.98 in Calm     84% 0.00 in CLR
02:25 70.9 °F 65.5 °F 29.97 in Calm     83% 0.00 in CLR
02:30 71.0 °F 65.9 °F 29.97 in Calm     84% 0.00 in CLR
02:40 71.1 °F 65.7 °F 29.97 in Calm     83% 0.00 in CLR
02:45 71.1 °F 65.6 °F 29.97 in Calm     83% 0.00 in CLR
02:50 71.1 °F 65.7 °F 29.97 in Calm     83% 0.00 in CLR
02:55 71.1 °F 65.7 °F 29.97 in Calm     83% 0.00 in CLR
03:00 71.1 °F 65.7 °F 29.97 in Calm     83% 0.00 in CLR
03:05 71.2 °F 65.7 °F 29.97 in Calm     83% 0.00 in CLR
03:10 71.2 °F 65.4 °F 29.97 in Calm     82% 0.00 in CLR
03:15 71.1 °F 65.7 °F 29.97 in Calm     83% 0.00 in CLR
03:20 71.1 °F 65.7 °F 29.97 in Calm     83% 0.00 in CLR
03:25 71.0 °F 65.6 °F 29.96 in Calm     83% 0.00 in CLR
03:30 70.9 °F 65.5 °F 29.96 in Calm     83% 0.00 in CLR
03:35 70.8 °F 65.4 °F 29.96 in Calm     83% 0.00 in CLR
03:40 70.7 °F 65.3 °F 29.96 in Calm     83% 0.00 in CLR
03:45 70.6 °F 65.2 °F 29.96 in Calm     83% 0.00 in CLR
03:50 70.4 °F 65.3 °F 29.96 in Calm     84% 0.00 in CLR
03:55 70.2 °F 65.1 °F 29.96 in Calm     84% 0.00 in CLR
04:00 70.1 °F 65.3 °F 29.96 in Calm     85% 0.00 in CLR
04:05 69.9 °F 65.2 °F 29.97 in Calm     85% 0.00 in CLR
04:10 69.7 °F 65.0 °F 29.97 in Calm     85% 0.00 in CLR
04:15 69.6 °F 64.9 °F 29.97 in Calm     85% 0.00 in CLR
04:20 69.4 °F 65.0 °F 29.97 in Calm     86% 0.00 in CLR
04:25 69.4 °F 65.0 °F 29.97 in Calm     86% 0.00 in CLR
04:30 69.3 °F 64.9 °F 29.97 in Calm     86% 0.00 in CLR
04:40 69.2 °F 65.2 °F 29.97 in Calm     87% 0.00 in CLR
04:45 69.2 °F 65.2 °F 29.97 in Calm     87% 0.00 in CLR
04:50 69.2 °F 65.2 °F 29.97 in Calm     87% 0.00 in CLR
05:00 69.4 °F 65.0 °F 29.97 in Calm     86% 0.00 in CLR
05:05 69.5 °F 65.1 °F 29.97 in Calm     86% 0.00 in CLR
05:10 69.5 °F 65.1 °F 29.97 in Calm     86% 0.00 in CLR
05:20 69.5 °F 65.1 °F 29.97 in Calm     86% 0.00 in CLR
05:25 69.5 °F 65.1 °F 29.98 in Calm     86% 0.00 in CLR
05:30 69.4 °F 65.1 °F 29.98 in Calm     86% 0.00 in CLR
05:35 69.4 °F 65.0 °F 29.98 in Calm     86% 0.00 in CLR
05:40 69.3 °F 64.9 °F 29.98 in Calm     86% 0.00 in CLR
05:45 69.0 °F 64.7 °F 29.98 in Calm     86% 0.00 in CLR
05:50 68.9 °F 64.5 °F 29.98 in Calm     86% 0.00 in CLR
05:55 68.8 °F 64.7 °F 29.98 in Calm     87% 0.00 in CLR
06:00 68.6 °F 64.6 °F 29.98 in Calm     87% 0.00 in CLR
06:10 68.3 °F 64.3 °F 29.98 in Calm     87% 0.00 in CLR
06:15 68.2 °F 64.5 °F 29.98 in Calm     88% 0.00 in CLR
06:20 68.1 °F 64.4 °F 29.98 in Calm     88% 0.00 in CLR
06:25 68.0 °F 64.3 °F 29.99 in Calm     88% 0.00 in CLR
06:30 68.0 °F 64.3 °F 29.99 in Calm     88% 0.00 in CLR
06:40 67.9 °F 64.2 °F 29.98 in Calm     88% 0.00 in CLR
06:45 67.8 °F 64.1 °F 29.99 in Calm     88% 0.00 in CLR
06:50 67.7 °F 64.3 °F 29.99 in Calm     89% 0.00 in CLR
06:55 67.6 °F 64.2 °F 29.99 in Calm     89% 0.00 in CLR
07:00 67.5 °F 64.1 °F 29.99 in Calm     89% 0.00 in CLR
07:05 67.4 °F 64.1 °F 29.99 in Calm     89% 0.00 in CLR
07:10 67.4 °F 64.0 °F 29.98 in Calm     89% 0.00 in CLR
07:15 67.4 °F 64.0 °F 29.98 in Calm     89% 0.00 in CLR
07:20 67.4 °F 64.4 °F 29.99 in Calm     90% 0.00 in SCT
07:25 67.5 °F 64.1 °F 29.98 in Calm     89% 0.00 in SCT
07:30 67.4 °F 64.0 °F 29.98 in Calm     89% 0.00 in SCT
07:35 67.5 °F 64.1 °F 29.98 in Calm     89% 0.00 in SCT
07:40 67.5 °F 64.5 °F 29.98 in Calm     90% 0.00 in SCT
07:45 67.6 °F 64.6 °F 29.98 in Calm     90% 0.00 in SCT
07:50 67.7 °F 64.7 °F 29.98 in Calm     90% 0.00 in SCT
07:55 67.8 °F 64.8 °F 29.98 in Calm     90% 0.00 in SCT
08:00 67.9 °F 64.9 °F 29.98 in Calm     90% 0.00 in SCT
08:05 68.1 °F 65.1 °F 29.99 in Calm     90% 0.00 in SCT
08:10 68.4 °F 65.0 °F 29.99 in Calm     89% 0.00 in SCT
08:15 68.6 °F 65.2 °F 29.99 in Calm     89% 0.00 in SCT
08:20 68.9 °F 65.5 °F 29.99 in Calm     89% 0.00 in SCT
08:30 69.6 °F 66.2 °F 29.99 in Calm     89% 0.00 in SCT
08:40 70.2 °F 66.5 °F 29.99 in Calm     88% 0.00 in SCT
08:45 70.5 °F 66.5 °F 29.99 in Calm     87% 0.00 in SCT
08:50 70.9 °F 66.5 °F 29.99 in Calm     86% 0.00 in SCT
08:55 71.3 °F 66.9 °F 29.99 in Calm     86% 0.00 in SCT
09:00 71.6 °F 66.9 °F 30.00 in Calm     85% 0.00 in SCT
09:05 72.1 °F 67.4 °F 29.99 in Calm     85% 0.00 in SCT
09:10 72.6 °F 67.1 °F 29.99 in Calm   2.0 mph 83% 0.00 in SCT
09:15 73.0 °F 67.6 °F 30.00 in Calm     83% 0.00 in SCT
09:20 73.5 °F 67.6 °F 30.00 in Calm   1.0 mph 82% 0.00 in FEW
09:25 74.0 °F 67.8 °F 30.00 in Calm   1.0 mph 81% 0.00 in FEW
09:30 74.4 °F 68.2 °F 30.00 in Calm   2.0 mph 81% 0.00 in FEW
09:35 74.7 °F 67.8 °F 30.00 in SW 1.0 mph 2.0 mph 79% 0.00 in FEW
09:40 74.9 °F 67.9 °F 30.00 in Calm   2.0 mph 79% 0.00 in FEW
09:45 75.2 °F 67.9 °F 30.00 in WSW 1.0 mph 2.0 mph 78% 0.00 in FEW
09:50 75.6 °F 67.9 °F 30.00 in Calm   1.0 mph 77% 0.00 in FEW
09:55 76.0 °F 68.2 °F 30.01 in Calm   1.0 mph 77% 0.00 in FEW
10:00 76.4 °F 68.3 °F 30.01 in Calm   1.0 mph 76% 0.00 in FEW
10:05 77.1 °F 68.6 °F 30.01 in Calm   1.0 mph 75% 0.00 in FEW
10:10 77.7 °F 68.7 °F 30.01 in Calm   1.0 mph 74% 0.00 in FEW
10:15 78.1 °F 68.3 °F 30.01 in Calm   1.0 mph 72% 0.00 in FEW
10:20 78.4 °F 68.6 °F 30.01 in Calm   2.0 mph 72% 0.00 in FEW
10:25 78.7 °F 68.5 °F 30.01 in SSW 1.0 mph 2.0 mph 71% 0.00 in FEW
10:30 78.9 °F 68.3 °F 30.02 in Calm   1.0 mph 70% 0.00 in FEW
10:35 79.1 °F 68.5 °F 30.02 in West 1.0 mph 2.0 mph 70% 0.00 in FEW
10:40 79.2 °F 67.7 °F 30.02 in Calm   3.0 mph 68% 0.00 in FEW
10:45 79.3 °F 68.2 °F 30.02 in Calm   1.0 mph 69% 0.00 in FEW
10:50 79.4 °F 68.0 °F 30.02 in Calm   1.0 mph 68% 0.00 in FEW
10:55 79.5 °F 67.2 °F 30.02 in Calm   3.0 mph 66% 0.00 in FEW
11:00 79.7 °F 67.3 °F 30.02 in Calm   1.0 mph 66% 0.00 in FEW
11:05 80.0 °F 68.4 °F 30.02 in Calm     68% 0.00 in FEW
11:10 80.1 °F 68.2 °F 30.02 in Calm   1.0 mph 67% 0.00 in FEW
11:15 80.2 °F 66.5 °F 30.02 in Calm   1.0 mph 63% 0.00 in FEW
11:20 80.4 °F 67.6 °F 30.02 in Calm   3.0 mph 65% 0.00 in FEW
11:25 80.6 °F 66.8 °F 30.02 in SE 1.0 mph 3.0 mph 63% 0.00 in FEW
11:30 80.7 °F 66.5 °F 30.02 in ESE 1.0 mph 3.0 mph 62% 0.00 in FEW
11:35 80.8 °F 66.6 °F 30.02 in WNW 1.0 mph 2.0 mph 62% 0.00 in FEW
11:40 80.9 °F 65.2 °F 30.02 in Calm   2.0 mph 59% 0.00 in FEW
11:45 81.2 °F 66.4 °F 30.02 in Calm   1.0 mph 61% 0.00 in FEW
11:50 81.6 °F 66.8 °F 30.02 in Calm   1.0 mph 61% 0.00 in FEW
11:55 82.0 °F 66.3 °F 30.02 in West 1.0 mph 3.0 mph 59% 0.00 in FEW
12:00 82.0 °F 65.8 °F 30.02 in Calm   3.0 mph 58% 0.00 in FEW
12:10 82.5 °F 65.2 °F 30.02 in Calm   2.0 mph 56% 0.00 in FEW
12:15 83.2 °F 65.8 °F 30.03 in Calm   1.0 mph 56% 0.00 in FEW
12:20 83.8 °F 67.0 °F 30.02 in Calm   1.0 mph 57% 0.00 in FEW
12:25 84.4 °F 64.9 °F 30.02 in Calm   2.0 mph 52% 0.00 in FEW
12:30 84.3 °F 64.8 °F 30.02 in Calm   2.0 mph 52% 0.00 in FEW
12:35 84.9 °F 66.4 °F 30.02 in West 1.0 mph 3.0 mph 54% 0.00 in FEW
12:40 85.2 °F 65.1 °F 30.02 in Calm   1.0 mph 51% 0.00 in FEW
12:45 85.7 °F 67.1 °F 30.02 in Calm   1.0 mph 54% 0.00 in FEW
12:50 86.1 °F 64.7 °F 30.02 in Calm   2.0 mph 49% 0.00 in FEW
12:55 86.6 °F 66.3 °F 30.02 in Calm     51% 0.00 in FEW
13:00 87.3 °F 65.8 °F 30.02 in Calm   2.0 mph 49% 0.00 in FEW
13:05 86.9 °F 65.5 °F 30.02 in Calm   2.0 mph 49% 0.00 in FEW
13:10 86.6 °F 65.7 °F 30.02 in Calm   1.0 mph 50% 0.00 in FEW
13:15 86.9 °F 65.5 °F 30.01 in Calm   2.0 mph 49% 0.00 in FEW
13:20 87.2 °F 65.7 °F 30.01 in Calm   5.0 mph 49% 0.00 in FEW
13:25 87.9 °F 65.1 °F 30.01 in Calm     47% 0.00 in FEW
13:30 88.5 °F 65.7 °F 30.01 in Calm   1.0 mph 47% 0.00 in FEW
13:35 89.0 °F 66.8 °F 30.01 in Calm   1.0 mph 48% 0.00 in FEW
13:40 89.3 °F 65.8 °F 30.00 in WSW 1.0 mph 2.0 mph 46% 0.00 in FEW
13:45 88.4 °F 63.7 °F 30.00 in Calm   2.0 mph 44% 0.00 in FEW
13:50 88.1 °F 65.3 °F 30.00 in Calm   2.0 mph 47% 0.00 in FEW
13:55 88.2 °F 65.4 °F 30.00 in North 1.0 mph 3.0 mph 47% 0.00 in FEW
14:00 88.2 °F 65.5 °F 30.00 in Calm   2.0 mph 47% 0.00 in FEW
14:05 88.9 °F 64.8 °F 30.00 in Calm   1.0 mph 45% 0.00 in FEW
14:10 89.1 °F 65.6 °F 30.00 in NW 1.0 mph 2.0 mph 46% 0.00 in FEW
14:15 88.8 °F 64.1 °F 30.00 in Calm   2.0 mph 44% 0.00 in FEW
14:20 88.9 °F 64.8 °F 30.00 in Calm   1.0 mph 45% 0.00 in FEW
14:25 88.7 °F 63.4 °F 29.99 in Calm   3.0 mph 43% 0.00 in FEW
14:30 88.6 °F 64.5 °F 29.99 in Calm   1.0 mph 45% 0.00 in FEW
14:35 88.5 °F 62.4 °F 29.99 in Calm   1.0 mph 42% 0.00 in FEW
14:40 88.4 °F 64.4 °F 29.99 in Calm   1.0 mph 45% 0.00 in FEW
14:45 88.2 °F 63.5 °F 29.99 in Calm   1.0 mph 44% 0.00 in FEW
14:50 88.0 °F 63.4 °F 29.99 in Calm   1.0 mph 44% 0.00 in FEW
14:55 87.8 °F 64.5 °F 29.98 in Calm   1.0 mph 46% 0.00 in FEW
15:00 87.6 °F 63.0 °F 29.98 in Calm   1.0 mph 44% 0.00 in FEW
15:05 87.6 °F 64.3 °F 29.98 in Calm   1.0 mph 46% 0.00 in FEW
15:15 87.9 °F 62.6 °F 29.98 in Calm   1.0 mph 43% 0.00 in FEW
15:20 87.9 °F 63.2 °F 29.98 in Calm   2.0 mph 44% 0.00 in FEW
15:25 87.7 °F 63.7 °F 29.98 in Calm   1.0 mph 45% 0.00 in FEW
15:30 87.4 °F 61.5 °F 29.97 in Calm   1.0 mph 42% 0.00 in FEW
15:35 87.3 °F 62.7 °F 29.97 in Calm   1.0 mph 44% 0.00 in FEW
15:40 87.2 °F 61.3 °F 29.97 in Calm   1.0 mph 42% 0.00 in FEW
15:45 87.4 °F 60.8 °F 29.97 in Calm   1.0 mph 41% 0.00 in FEW
15:50 87.8 °F 61.9 °F 29.97 in Calm   2.0 mph 42% 0.00 in FEW
15:55 87.7 °F 61.8 °F 29.97 in Calm   2.0 mph 42% 0.00 in FEW
16:05 87.6 °F 63.0 °F 29.97 in Calm   1.0 mph 44% 0.00 in FEW
16:15 87.6 °F 62.3 °F 29.96 in Calm   2.0 mph 43% 0.00 in FEW
16:20 87.5 °F 59.5 °F 29.96 in Calm   2.0 mph 39% 0.00 in SCT
16:25 87.5 °F 60.9 °F 29.96 in Calm   1.0 mph 41% 0.00 in SCT
16:30 87.4 °F 60.8 °F 29.96 in Calm   1.0 mph 41% 0.00 in SCT
16:35 87.4 °F 60.8 °F 29.96 in Calm   1.0 mph 41% 0.00 in SCT
16:40 87.5 °F 63.5 °F 29.96 in Calm     45% 0.00 in SCT
16:45 87.4 °F 63.5 °F 29.96 in Calm     45% 0.00 in SCT
16:50 87.3 °F 62.1 °F 29.95 in Calm   1.0 mph 43% 0.00 in SCT
16:55 87.5 °F 63.5 °F 29.95 in Calm   1.0 mph 45% 0.00 in SCT
17:00 87.5 °F 64.8 °F 29.95 in Calm   1.0 mph 47% 0.00 in SCT
17:05 87.5 °F 64.2 °F 29.95 in Calm   1.0 mph 46% 0.00 in SCT
17:10 87.6 °F 63.6 °F 29.95 in Calm   1.0 mph 45% 0.00 in SCT
17:15 87.9 °F 65.8 °F 29.95 in Calm   1.0 mph 48% 0.00 in SCT
17:20 87.9 °F 65.7 °F 29.95 in Calm   2.0 mph 48% 0.00 in SCT
17:25 88.2 °F 65.4 °F 29.95 in Calm   1.0 mph 47% 0.00 in SCT
17:30 88.4 °F 65.0 °F 29.96 in Calm   1.0 mph 46% 0.00 in SCT
17:35 88.2 °F 64.8 °F 29.96 in Calm   5.0 mph 46% 0.00 in SCT
17:40 88.0 °F 64.6 °F 29.96 in Calm   1.0 mph 46% 0.00 in SCT
17:45 88.0 °F 65.2 °F 29.96 in Calm   1.0 mph 47% 0.00 in SCT
17:50 87.7 °F 64.4 °F 29.96 in Calm   1.0 mph 46% 0.00 in SCT
17:55 87.4 °F 64.7 °F 29.96 in Calm   1.0 mph 47% 0.00 in SCT
18:00 87.1 °F 63.8 °F 29.96 in Calm   1.0 mph 46% 0.00 in SCT
18:05 86.9 °F 64.8 °F 29.96 in Calm   1.0 mph 48% 0.00 in SCT
18:10 86.5 °F 63.9 °F 29.96 in Calm   1.0 mph 47% 0.00 in SCT
18:15 86.2 °F 64.8 °F 29.95 in Calm     49% 0.00 in SCT
18:20 85.8 °F 64.5 °F 29.95 in Calm   1.0 mph 49% 0.00 in SCT
18:25 85.4 °F 64.6 °F 29.95 in Calm   1.0 mph 50% 0.00 in SCT
18:30 85.1 °F 65.5 °F 29.95 in Calm     52% 0.00 in SCT
18:35 84.9 °F 65.9 °F 29.95 in Calm   5.0 mph 53% 0.00 in SCT
18:40 84.9 °F 66.4 °F 29.95 in Calm   1.0 mph 54% 0.00 in SCT
18:45 84.8 °F 67.3 °F 29.95 in Calm   2.0 mph 56% 0.00 in SCT
18:50 84.5 °F 67.1 °F 29.95 in Calm   1.0 mph 56% 0.00 in SCT
18:55 84.0 °F 67.2 °F 29.95 in Calm   1.0 mph 57% 0.00 in SCT
19:00 83.9 °F 67.5 °F 29.95 in Calm   1.0 mph 58% 0.00 in SCT
19:05 83.6 °F 68.2 °F 29.95 in Calm     60% 0.00 in SCT
19:10 83.2 °F 68.3 °F 29.95 in Calm   1.0 mph 61% 0.00 in SCT
19:15 83.0 °F 68.2 °F 29.95 in Calm   1.0 mph 61% 0.00 in SCT
19:20 82.7 °F 68.4 °F 29.95 in Calm     62% 0.00 in SCT
19:25 82.5 °F 68.2 °F 29.95 in Calm   1.0 mph 62% 0.00 in SCT
19:30 82.3 °F 68.4 °F 29.96 in Calm     63% 0.00 in SCT
19:35 82.0 °F 68.2 °F 29.96 in Calm   1.0 mph 63% 0.00 in SCT
19:40 81.8 °F 68.4 °F 29.96 in Calm   1.0 mph 64% 0.00 in SCT
19:45 81.6 °F 68.2 °F 29.96 in Calm   1.0 mph 64% 0.00 in SCT
19:50 81.4 °F 68.1 °F 29.96 in Calm     64% 0.00 in SCT
19:55 81.2 °F 67.9 °F 29.96 in Calm     64% 0.00 in SCT
20:00 81.0 °F 68.1 °F 29.96 in Calm     65% 0.00 in SCT
20:05 80.8 °F 67.9 °F 29.96 in Calm     65% 0.00 in SCT
20:10 80.6 °F 67.7 °F 29.96 in Calm     65% 0.00 in SCT
20:15 80.3 °F 67.9 °F 29.97 in Calm     66% 0.00 in SCT
20:20 80.1 °F 68.2 °F 29.97 in Calm     67% 0.00 in SCT
20:30 79.9 °F 68.0 °F 29.97 in Calm     67% 0.00 in SCT
20:35 79.7 °F 67.8 °F 29.97 in Calm     67% 0.00 in SCT
20:40 79.4 °F 67.9 °F 29.97 in Calm     68% 0.00 in SCT
20:45 79.2 °F 68.1 °F 29.98 in Calm     69% 0.00 in SCT
20:50 78.9 °F 67.9 °F 29.98 in Calm     69% 0.00 in SCT
20:55 78.6 °F 68.0 °F 29.98 in Calm     70% 0.00 in SCT
21:00 78.4 °F 67.8 °F 29.98 in Calm     70% 0.00 in SCT
21:05 78.1 °F 67.5 °F 29.98 in Calm     70% 0.00 in SCT
21:10 77.9 °F 67.3 °F 29.99 in Calm     70% 0.00 in SCT
21:15 77.7 °F 67.5 °F 29.99 in Calm     71% 0.00 in SCT
21:25 77.2 °F 67.5 °F 29.99 in Calm     72% 0.00 in SCT
21:30 77.1 °F 67.7 °F 29.99 in Calm     73% 0.00 in SCT
21:35 76.9 °F 68.0 °F 30.00 in Calm     74% 0.00 in SCT
21:40 76.7 °F 67.4 °F 30.00 in Calm     73% 0.00 in SCT
21:45 76.5 °F 67.2 °F 30.00 in Calm     73% 0.00 in SCT
21:55 76.2 °F 67.3 °F 30.00 in Calm     74% 0.00 in SCT
22:00 76.1 °F 67.2 °F 30.00 in Calm     74% 0.00 in SCT
22:05 76.0 °F 67.1 °F 30.00 in Calm     74% 0.00 in SCT
22:10 75.9 °F 67.4 °F 30.00 in Calm     75% 0.00 in SCT
22:15 75.8 °F 67.3 °F 30.00 in Calm     75% 0.00 in SCT
22:20 75.8 °F 68.1 °F 30.01 in Calm     77% 0.00 in FEW
22:25 75.7 °F 68.0 °F 30.01 in Calm     77% 0.00 in FEW
22:30 75.6 °F 68.6 °F 30.01 in Calm     79% 0.00 in FEW
22:35 75.4 °F 68.1 °F 30.02 in Calm     78% 0.00 in FEW
22:40 75.3 °F 68.3 °F 30.02 in Calm     79% 0.00 in FEW
22:45 75.2 °F 68.2 °F 30.02 in Calm     79% 0.00 in FEW
22:50 75.1 °F 67.8 °F 30.02 in Calm     78% 0.00 in FEW
22:55 75.1 °F 67.8 °F 30.02 in Calm     78% 0.00 in FEW
23:00 75.1 °F 67.8 °F 30.02 in Calm     78% 0.00 in FEW
23:05 75.7 °F 68.0 °F 30.02 in Calm   1.0 mph 77% 0.00 in FEW
23:10 76.3 °F 68.6 °F 30.02 in Calm     77% 0.00 in FEW
23:20 75.8 °F 68.8 °F 30.02 in Calm     79% 0.00 in CLR
23:25 75.5 °F 68.5 °F 30.02 in Calm     79% 0.00 in CLR
23:30 75.2 °F 68.6 °F 30.02 in Calm     80% 0.00 in CLR
23:35 74.8 °F 68.2 °F 30.02 in Calm     80% 0.00 in CLR
23:40 74.5 °F 68.3 °F 30.02 in Calm     81% 0.00 in CLR
23:45 74.3 °F 68.5 °F 30.02 in Calm     82% 0.00 in CLR
23:50 74.2 °F 68.3 °F 30.02 in Calm     82% 0.00 in CLR
23:55 74.0 °F 68.2 °F 30.02 in Calm     82% 0.00 in CLR
Piedmont Bend
Compliments of Weather Underground - 4 mb